Location: Leiter
(44.7178°N, 106.2687°W)
Time: 03:30:01
(UTC+00:00)

ESTCUBE 1 - Pass Details

Date: 01 July 2022
Orbit: 646 x 657 km, 97.9° (Epoch: 13 August)

Event Time Altitude Azimuth Distance (km) Brightness Sun altitude
Exits shadow 03:38:41 - 103° (ESE) 2,481 ? -7.0°
Reaches altitude 10° 03:40:33 10° 84° (E) 2,050 ? -7.2°
Maximum altitude 03:42:25 13° 59° (ENE) 1,887 ? -7.4°
Drops below altitude 10° 03:44:18 10° 34° (NE) 2,057 ? -7.7°
Sets 03:47:44 0° 6° (N) 2,976 ? -8.1°
